Temperature
9 8 8 7 7 6 6 6 5 5 4 4 4 3 3 3 3 2 2 1 1 1 0 -0 -1 -1 -2 -2 -2 -3 -3 -4 -5 -4 -4 -4 -4 -4 -3 -3 -3 -3 -2
8 8 7 7 6 6 5 5 4 4 4 3 3 3 3 2 2 1 1 1 0 -0 -1 -1 -2 -2 -3 -3 -3 -4 -4 -4 -5 -5 -5 -5 -4 -4 -4 -4 -3 -3 -3
8 7 7 6 6 5 5 4 4 3 3 3 3 2 2 2 1 1 0 -0 -1 -1 -2 -2 -3 -3 -3 -4 -4 -4 -4 -5 -5 -5 -5 -5 -5 -4 -4 -4 -4 -4 -3
7 6 6 6 5 5 4 4 3 3 2 2 2 2 1 1 0 -0 -1 -1 -2 -2 -3 -3 -4 -4 -4 -4 -5 -5 -5 -5 -5 -5 -5 -5 -5 -5 -4 -4 -4 -4 -4
6 6 5 5 5 4 4 3 3 2 2 2 1 1 1 0 -0 -1 -2 -2 -3 -3 -3 -4 -4 -4 -5 -5 -5 -5 -5 -5 -5 -5 -5 -5 -5 -5 -5 -5 -5 -4 -4
6 5 5 4 4 3 3 2 2 2 1 1 1 0 0 -0 -1 -2 -3 -3 -3 -4 -4 -4 -4 -5 -5 -5 -5 -5 -5 -5 -5 -5 -5 -5 -5 -5 -5 -5 -5 -5 -5
5 5 4 4 3 3 2 2 2 1 1 1 0 -0 -0 -1 -1 -2 -3 -4 -4 -4 -5 -5 -5 -5 -5 -5 -5 -5 -5 -5 -6 -5 -5 -5 -5 -5 -5 -5 -5 -5 -5
5 4 4 3 3 2 2 1 1 1 0 0 -0 -1 -1 -1 -2 -3 -3 -4 -4 -5 -5 -5 -5 -5 -5 -6 -6 -6 -6 -6 -5 -6 -6 -5 -5 -5 -5 -5 -5 -5 -5
4 4 3 3 2 2 1 1 0 0 -0 -1 -1 -1 -2 -2 -2 -3 -4 -5 -5 -5 -5 -5 -6 -6 -6 -6 -6 -6 -6 -6 -6 -6 -6 -6 -5 -5 -5 -5 -5 -5 -5
4 3 3 2 2 1 1 0 -0 -1 -1 -1 -1 -2 -2 -2 -3 -4 -5 -5 -6 -6 -6 -6 -6 -6 -6 -6 -6 -6 -6 -6 -6 -6 -6 -6 -6 -6 -6 -6 -6 -6 -6
3 2 2 2 1 1 0 -0 -1 -1 -1 -2 -2 -2 -2 -3 -3 -4 -5 -6 -6 -6 -6 -6 -6 -6 -6 -6 -6 -6 -6 -6 -6 -6 -6 -6 -6 -6 -6 -6 -6 -6 -6
2 2 2 1 1 0 -1 -1 -1 -2 -2 -2 -2 -2 -3 -3 -4 -5 -6 -6 -6 -6 -7 -6 -6 -6 -6 -6 -6 -6 -6 -7 -7 -7 -7 -7 -7 -7 -7 -7 -7 -7 -7
2 1 1 1 0 -1 -1 -2 -2 -2 -3 -3 -3 -4 -4 -4 -5 -6 -6 -6 -7 -7 -7 -7 -7 -6 -6 -6 -7 -7 -7 -7 -7 -7 -7 -7 -7 -7 -7 -7 -7 -7 -7
1 1 0 -0 -1 -1 -2 -2 -3 -3 -3 -4 -4 -5 -5 -6 -6 -6 -7 -7 -7 -7 -7 -7 -7 -7 -7 -7 -7 -7 -7 -8 -8 -8 -8 -8 -8 -8 -7 -7 -7 -7 -7
0 0 -0 -1 -1 -2 -2 -3 -3 -4 -4 -5 -6 -6 -6 -7 -7 -7 -7 -7 -7 -7 -7 -7 -7 -7 -7 -7 -7 -8 -8 -8 -8 -8 -8 -8 -8 -8 -8 -8 -8 -8 -8
-0 -1 -1 -2 -2 -3 -3 -3 -3 -4 -5 -6 -6 -7 -7 -7 -7 -7 -7 -7 -7 -7 -7 -7 -8 -8 -8 -8 -8 -8 -8 -8 -8 -9 -9 -9 -9 -9 -8 -8 -8 -8 -8
-1 -1 -2 -2 -3 -3 -4 -4 -5 -4 -5 -6 -6 -7 -7 -8 -8 -8 -8 -8 -8 -8 -8 -8 -8 -9 -9 -9 -9 -9 -9 -8 -9 -9 -9 -9 -9 -9 -9 -9 -8 -8 -8
-2 -2 -3 -3 -4 -4 -5 -5 -6 -6 -6 -6 -7 -7 -8 -8 -8 -8 -8 -8 -8 -9 -9 -9 -9 -9 -9 -9 -9 -9 -9 -9 -9 -9 -9 -9 -9 -9 -9 -9 -9 -9 -9
-2 -3 -3 -4 -4 -5 -6 -6 -7 -7 -7 -8 -8 -8 -8 -9 -9 -9 -9 -9 -9 -9 -9 -10 -10 -10 -9 -9 -9 -9 -9 -9 -9 -9 -9 -9 -9 -9 -9 -9 -9 -9 -9
-3 -4 -4 -5 -5 -6 -6 -7 -7 -8 -8 -8 -9 -9 -9 -9 -9 -9 -9 -10 -10 -10 -10 -10 -10 -10 -10 -10 -10 -10 -10 -9 -9 -9 -9 -9 -10 -10 -10 -10 -10 -10 -9
-4 -4 -5 -6 -6 -7 -7 -8 -8 -8 -9 -9 -9 -9 -9 -10 -10 -10 -10 -10 -10 -11 -11 -11 -11 -10 -10 -10 -10 -10 -10 -10 -10 -10 -10 -10 -10 -10 -10 -10 -10 -10 -10
-5 -5 -6 -6 -7 -8 -8 -8 -9 -9 -9 -9 -10 -10 -10 -10 -10 -11 -11 -11 -11 -11 -11 -11 -11 -11 -10 -10 -10 -10 -10 -10 -10 -10 -10 -10 -10 -10 -10 -10 -10 -10 -10
-6 -6 -7 -7 -8 -8 -9 -9 -9 -10 -10 -10 -10 -10 -11 -11 -11 -11 -11 -11 -11 -11 -11 -11 -11 -11 -11 -10 -10 -10 -10 -10 -10 -10 -10 -10 -10 -10 -10 -10 -10 -10 -10
-7 -7 -8 -8 -9 -9 -9 -10 -10 -10 -10 -11 -11 -11 -11 -11 -12 -12 -12 -12 -12 -12 -12 -11 -11 -11 -11 -11 -11 -10 -10 -10 -10 -10 -10 -10 -10 -10 -10 -10 -10 -10 -10
-8 -8 -9 -9 -9 -10 -10 -10 -11 -11 -11 -11 -11 -12 -12 -12 -12 -12 -12 -12 -12 -12 -12 -12 -12 -11 -11 -11 -11 -11 -10 -10 -10 -10 -10 -10 -10 -10 -10 -10 -10 -10 -10
-8 -9 -9 -10 -10 -10 -11 -11 -11 -11 -12 -12 -12 -12 -12 -12 -13 -13 -13 -13 -13 -12 -12 -12 -12 -12 -11 -11 -11 -10 -10 -10 -10 -10 -10 -10 -10 -10 -10 -10 -10 -10 -10
Wind_Speed
6 4 3 2 1 1 1 3 3 3 4 5 6 7 7 8 7 7 8 9 9 9 9 9 10 9 7 7 6 7 8 9 16 14 7 7 9 12 13 15 18 17 19
5 4 3 2 1 1 3 4 4 5 5 6 6 7 8 8 8 8 9 9 9 10 10 10 11 10 9 8 7 9 9 9 13 19 12 8 10 10 12 13 13 15 13
5 4 3 2 2 3 4 5 5 5 6 6 7 8 9 9 9 9 9 10 10 10 11 11 11 10 11 9 10 10 10 11 11 14 15 10 9 9 10 12 13 11 13
5 4 3 4 4 5 5 5 6 6 7 8 8 8 9 9 9 10 10 10 10 10 11 11 11 11 12 12 11 11 11 11 11 13 14 12 9 8 8 9 10 8 10
5 4 4 5 5 5 6 6 7 7 8 8 8 9 9 8 9 10 9 10 10 10 10 10 11 15 18 16 14 11 10 10 11 12 13 12 10 8 8 8 11 9 9
4 4 4 4 5 6 6 7 7 8 8 8 9 9 10 10 17 22 18 10 9 10 10 10 11 15 18 23 25 24 21 15 13 13 14 14 13 11 10 10 11 12 10
4 4 5 5 6 7 7 7 8 8 8 9 9 9 10 13 21 23 23 15 10 9 10 10 12 13 18 11 19 23 22 25 24 18 16 16 15 12 12 14 13 14 14
4 4 5 6 7 7 7 8 8 8 8 8 9 10 10 13 21 24 24 14 10 10 10 11 12 12 13 15 13 13 13 14 17 14 13 15 15 14 14 15 15 14 13
4 6 6 6 7 7 8 9 8 8 8 9 9 10 11 13 21 24 23 10 9 11 11 11 13 12 20 25 17 14 14 12 18 23 24 23 25 25 20 11 10 11 12
6 7 7 6 7 8 9 9 8 8 9 9 10 10 11 11 19 23 23 9 10 10 10 10 18 19 23 25 16 13 15 13 12 13 15 16 14 15 19 12 9 10 10
6 6 6 7 7 8 8 8 8 9 9 9 11 10 10 13 17 21 22 11 10 11 10 9 10 22 25 26 23 13 16 17 10 9 9 8 8 7 8 8 7 8 10
5 6 7 8 8 7 8 8 8 9 9 10 11 11 8 10 15 18 23 22 20 13 11 9 12 23 25 25 19 18 23 18 6 7 7 7 7 7 7 7 8 8 9
6 7 8 8 8 8 8 9 8 8 8 10 9 11 10 7 10 21 23 24 24 16 12 20 23 26 23 16 17 21 16 7 6 7 8 7 6 6 7 6 7 8 9
7 8 7 8 8 8 7 7 8 8 9 10 10 11 11 9 7 8 9 12 16 15 13 17 22 20 16 15 14 11 6 6 7 7 7 7 6 5 6 5 6 6 6
7 8 8 7 8 8 8 7 9 8 10 12 10 10 12 12 13 22 18 12 10 12 14 9 6 6 6 6 7 7 6 6 6 6 6 7 7 6 6 5 5 5 5
7 7 7 7 7 8 9 10 14 16 21 23 22 21 16 21 27 27 26 25 26 24 17 8 7 7 8 8 8 7 6 6 6 6 6 6 7 7 7 5 5 5 5
8 8 7 7 8 8 9 10 13 15 18 20 21 23 23 26 27 27 26 25 25 22 11 7 8 8 9 8 8 8 7 7 6 6 6 6 6 6 6 6 5 5 5
8 10 10 8 8 9 9 10 10 13 15 11 13 20 24 25 25 25 25 21 13 11 7 8 9 9 9 8 8 8 8 6 6 6 6 6 6 6 6 6 5 5 5
8 7 8 8 8 9 9 10 10 12 13 13 11 12 19 21 23 23 21 10 10 10 9 9 9 9 9 9 9 8 8 7 7 6 6 6 6 6 6 6 6 9 7
8 14 13 9 8 9 9 10 11 12 12 12 12 11 10 13 11 11 9 8 9 10 9 9 9 9 9 9 8 8 8 7 7 7 7 6 6 6 7 7 6 6 6
8 10 16 12 9 10 10 11 11 12 12 12 12 14 21 14 11 10 10 9 9 10 10 10 10 10 9 9 8 9 9 8 7 7 7 7 6 6 6 6 7 7 6
8 8 8 9 10 10 11 11 11 12 13 14 13 14 22 13 10 10 10 10 9 9 9 10 10 9 9 9 9 9 9 9 8 7 7 7 7 7 7 7 7 6 6
8 10 10 10 10 15 15 11 11 12 13 13 13 13 12 11 11 11 11 10 9 9 9 9 10 10 9 9 9 9 10 9 8 8 8 8 8 8 7 8 8 8 8
9 10 11 11 11 11 12 12 11 12 13 13 13 12 12 11 11 12 11 10 10 10 10 10 11 12 14 12 10 9 9 10 9 9 11 10 10 9 8 8 9 10 9
9 10 11 11 11 12 12 13 13 13 13 14 13 13 12 12 12 12 11 10 11 12 13 12 10 11 13 14 13 12 16 21 19 13 10 10 11 11 11 11 10 10 10
9 10 11 10 10 11 12 13 13 13 13 14 13 12 12 12 12 12 11 11 11 11 12 11 12 13 14 13 15 19 22 23 22 22 13 10 11 11 11 11 12 11 11
Wind_Direction
163 160 154 175 194 210 268 282 287 291 297 300 300 302 302 300 298 295 290 289 285 284 283 281 276 273 270 266 261 262 264 268 285 292 274 268 266 270 278 279 280 279 279
166 161 171 190 215 262 277 281 282 284 286 288 292 295 295 295 293 290 290 291 286 285 284 282 280 280 272 268 266 267 270 268 277 289 291 278 266 267 270 272 279 279 274
163 165 184 216 244 262 271 276 278 280 286 289 290 290 290 289 288 284 281 282 280 278 278 277 278 277 277 274 270 273 274 276 272 280 288 284 276 272 272 273 272 272 274
167 178 208 235 246 256 265 271 275 278 284 286 285 283 283 284 284 283 280 277 275 274 273 271 271 270 272 274 277 272 273 274 274 278 284 286 280 270 267 274 279 268 269
174 199 230 246 253 261 268 272 275 278 279 279 282 283 283 286 284 284 282 276 273 275 273 268 269 277 282 285 286 280 277 279 282 285 287 289 285 281 276 274 279 277 268
185 219 240 253 261 265 268 271 275 277 278 279 279 280 283 290 301 307 306 292 281 279 282 279 278 284 287 291 293 294 292 289 289 287 288 286 287 282 280 279 281 282 282
202 232 248 255 263 266 269 273 274 276 276 279 278 277 278 285 301 306 307 305 289 282 281 283 289 289 295 286 288 290 289 288 287 286 286 285 285 281 279 278 274 274 275
221 245 254 257 262 267 270 271 273 272 274 276 278 278 279 287 301 307 308 303 286 279 276 277 280 281 281 286 279 277 274 275 278 279 272 273 273 273 268 270 274 276 272
238 250 255 255 260 268 271 273 274 275 277 276 276 278 279 287 299 306 306 292 284 280 277 276 281 280 285 292 293 287 285 281 285 285 284 285 285 289 289 286 280 282 283
245 252 256 257 259 265 269 273 275 274 277 281 281 277 276 279 294 303 304 292 287 285 280 274 284 288 292 295 292 288 290 288 283 286 288 289 288 287 290 283 278 281 282
251 260 265 264 264 265 269 271 277 280 283 284 284 281 274 279 293 300 303 299 287 288 288 283 277 291 293 294 295 291 291 295 291 292 292 287 283 278 275 270 262 265 274
263 267 270 270 272 276 273 277 278 281 286 288 289 289 276 276 289 297 301 301 301 296 292 286 282 291 293 296 299 296 299 306 304 298 292 287 286 284 280 278 272 263 260
272 272 274 276 275 274 274 280 285 282 284 290 291 293 292 275 279 296 301 302 300 297 289 290 293 298 301 301 297 299 304 303 296 291 290 287 279 278 284 287 283 276 270
273 276 278 280 281 278 275 275 280 283 285 288 290 292 294 289 277 277 278 288 293 293 290 289 293 295 296 293 294 297 289 277 284 282 286 286 285 285 287 290 296 301 294
275 277 279 276 278 282 277 271 279 270 276 288 288 286 294 297 294 300 302 299 295 290 297 292 285 287 281 278 277 273 269 274 284 280 284 290 294 295 294 292 288 296 294
276 278 277 278 280 281 287 291 286 287 294 295 294 294 294 295 301 304 305 305 307 306 306 297 293 289 286 286 285 282 275 272 273 277 282 285 289 293 296 294 289 291 290
269 276 278 276 280 283 287 292 299 300 296 294 294 296 297 300 303 304 305 306 306 307 301 288 285 285 284 281 279 277 277 272 269 273 277 279 283 286 290 292 290 289 287
271 280 284 276 277 280 283 284 289 296 302 297 292 295 299 301 303 304 305 308 303 299 279 280 281 280 278 277 276 275 273 271 266 266 268 270 273 278 283 284 282 281 285
276 276 277 275 275 278 282 286 287 289 292 295 295 296 300 303 303 301 303 295 290 288 283 280 279 279 276 275 274 272 268 268 265 263 264 264 264 268 273 275 275 284 287
274 286 294 288 283 285 286 287 289 290 291 292 294 297 300 300 295 293 289 281 282 282 282 281 281 279 275 272 271 269 267 264 261 259 260 260 259 260 266 269 269 271 269
274 283 292 293 284 285 286 286 287 288 290 291 291 295 300 301 298 294 292 287 282 282 282 281 281 280 276 271 268 266 263 265 259 256 258 257 255 259 258 258 261 261 262
274 277 278 280 284 286 288 288 290 290 291 291 293 295 299 296 288 287 286 284 280 277 277 279 279 276 273 270 269 269 266 263 260 254 253 253 252 254 254 255 257 258 256
276 281 285 285 286 292 295 290 289 289 290 290 293 294 294 289 288 288 287 286 283 281 279 277 278 277 272 268 265 262 263 264 260 254 254 256 253 251 249 250 252 254 252
277 282 287 290 290 289 290 291 290 290 290 291 291 290 290 289 288 288 288 286 285 283 281 279 277 275 274 275 273 265 260 261 259 255 250 252 251 250 247 247 248 247 247
281 285 288 290 291 292 292 292 291 290 290 291 291 290 290 290 289 289 288 287 285 284 282 280 279 278 276 274 274 272 273 274 273 266 250 247 247 244 244 245 246 245 242
285 287 289 289 288 289 290 290 290 290 289 290 289 287 288 288 288 287 286 284 283 284 284 282 276 274 274 277 276 277 280 279 277 274 264 252 247 247 242 244 242 241 241
Height
1521 1522 1521 1521 1520 1519 1517 1515 1513 1511 1508 1505 1502 1499 1495 1492 1488 1484 1480 1476 1472 1469 1466 1462 1458 1455 1451 1448 1445 1441 1438 1433 1423 1414 1416 1415 1413 1411 1408 1406 1404 1401 1399
1518 1518 1518 1518 1516 1515 1513 1511 1509 1506 1503 1500 1496 1493 1489 1485 1481 1477 1473 1469 1465 1461 1457 1454 1450 1447 1443 1440 1436 1432 1428 1425 1418 1409 1406 1405 1404 1402 1399 1397 1394 1392 1390
1514 1515 1514 1514 1512 1511 1509 1507 1504 1501 1498 1495 1491 1487 1483 1479 1474 1470 1466 1461 1457 1453 1450 1446 1442 1438 1434 1431 1427 1423 1419 1416 1411 1405 1399 1397 1395 1394 1391 1388 1386 1384 1382
1510 1511 1510 1509 1508 1506 1504 1502 1499 1496 1492 1488 1485 1481 1476 1472 1467 1463 1458 1453 1449 1446 1442 1438 1434 1430 1426 1422 1418 1415 1411 1408 1404 1399 1393 1390 1388 1386 1384 1380 1377 1375 1373
1506 1506 1506 1505 1503 1501 1499 1496 1493 1490 1486 1482 1478 1474 1470 1465 1460 1455 1450 1446 1441 1437 1433 1430 1426 1422 1418 1415 1412 1408 1405 1401 1397 1392 1387 1383 1380 1379 1377 1374 1370 1367 1364
1502 1502 1501 1500 1498 1496 1493 1490 1487 1483 1480 1476 1471 1467 1462 1458 1453 1448 1444 1439 1434 1429 1425 1421 1417 1414 1410 1407 1404 1401 1398 1394 1389 1385 1380 1377 1373 1371 1369 1366 1363 1359 1355
1498 1497 1496 1495 1492 1490 1487 1484 1480 1477 1473 1468 1464 1460 1455 1451 1446 1441 1436 1431 1426 1421 1417 1413 1409 1405 1402 1398 1394 1391 1388 1386 1383 1379 1373 1369 1366 1364 1361 1357 1355 1352 1348
1493 1492 1491 1489 1486 1484 1481 1477 1474 1470 1465 1461 1456 1452 1447 1443 1438 1433 1428 1423 1417 1413 1409 1405 1400 1396 1393 1389 1385 1381 1378 1376 1373 1370 1365 1361 1358 1355 1353 1349 1346 1342 1339
1488 1487 1485 1483 1480 1477 1474 1470 1467 1462 1457 1453 1449 1444 1439 1434 1430 1425 1420 1414 1408 1404 1401 1397 1393 1388 1385 1382 1379 1374 1369 1366 1364 1361 1357 1353 1350 1348 1345 1342 1338 1335 1331
1482 1481 1479 1477 1474 1470 1467 1463 1459 1455 1449 1445 1440 1436 1431 1425 1421 1416 1412 1406 1400 1395 1391 1388 1385 1382 1378 1375 1371 1366 1361 1357 1354 1350 1347 1344 1341 1338 1336 1334 1331 1328 1324
1477 1475 1473 1470 1467 1464 1460 1456 1451 1446 1441 1436 1431 1427 1422 1417 1412 1408 1404 1399 1394 1388 1383 1379 1376 1373 1370 1367 1363 1359 1354 1351 1346 1342 1338 1335 1333 1330 1328 1326 1323 1321 1318
1471 1469 1466 1464 1460 1457 1452 1448 1444 1438 1433 1427 1421 1416 1412 1408 1404 1399 1395 1392 1388 1382 1376 1372 1368 1365 1362 1358 1355 1351 1347 1344 1339 1335 1331 1328 1326 1323 1320 1318 1316 1314 1312
1464 1462 1459 1456 1453 1449 1445 1440 1435 1430 1425 1418 1413 1406 1401 1398 1395 1391 1387 1383 1379 1374 1369 1364 1361 1357 1353 1349 1346 1343 1340 1336 1332 1329 1325 1322 1320 1317 1314 1312 1309 1307 1305
1458 1455 1452 1448 1444 1441 1436 1432 1427 1422 1416 1410 1405 1399 1393 1388 1385 1381 1377 1373 1369 1365 1360 1356 1352 1349 1345 1342 1338 1335 1332 1329 1326 1323 1320 1317 1314 1312 1309 1307 1304 1301 1299
1451 1448 1444 1440 1436 1431 1427 1424 1418 1414 1410 1404 1398 1393 1387 1381 1377 1375 1371 1366 1362 1358 1353 1348 1344 1340 1337 1334 1331 1328 1325 1323 1320 1318 1315 1312 1309 1307 1304 1302 1300 1297 1295
1443 1440 1436 1432 1428 1423 1418 1413 1409 1406 1401 1396 1391 1387 1380 1376 1370 1366 1362 1358 1354 1350 1346 1340 1336 1333 1330 1326 1324 1321 1318 1316 1314 1312 1309 1307 1305 1302 1300 1298 1296 1294 1291
1436 1432 1428 1424 1420 1415 1409 1404 1397 1392 1390 1386 1382 1378 1373 1367 1363 1358 1354 1349 1345 1342 1337 1333 1329 1326 1323 1320 1317 1314 1312 1310 1308 1306 1304 1302 1300 1297 1295 1293 1291 1290 1288
1429 1425 1421 1416 1411 1407 1402 1396 1390 1384 1377 1372 1371 1368 1363 1359 1354 1349 1345 1341 1336 1333 1329 1325 1322 1318 1316 1313 1310 1308 1305 1303 1301 1299 1297 1296 1294 1292 1290 1289 1287 1285 1283
1421 1417 1413 1408 1403 1398 1393 1388 1383 1377 1371 1365 1360 1356 1354 1349 1345 1341 1337 1333 1328 1324 1321 1318 1314 1311 1308 1306 1303 1301 1298 1296 1294 1293 1291 1290 1288 1286 1285 1283 1282 1280 1279
1413 1409 1405 1399 1394 1389 1384 1379 1374 1369 1363 1358 1353 1348 1344 1340 1335 1331 1328 1324 1320 1316 1313 1310 1307 1304 1301 1298 1296 1294 1291 1289 1287 1286 1284 1283 1282 1280 1279 1277 1276 1275 1274
1405 1400 1396 1391 1386 1381 1376 1370 1365 1360 1355 1350 1345 1341 1338 1333 1327 1323 1319 1316 1312 1309 1305 1302 1299 1296 1293 1291 1289 1286 1284 1282 1280 1279 1277 1276 1275 1273 1272 1271 1270 1269 1268
1396 1391 1386 1382 1376 1372 1367 1362 1357 1352 1347 1342 1336 1332 1328 1324 1319 1315 1311 1307 1304 1300 1297 1294 1290 1287 1285 1283 1281 1279 1276 1274 1273 1271 1270 1269 1267 1266 1265 1264 1263 1263 1262
1388 1383 1377 1373 1368 1363 1358 1353 1348 1343 1338 1333 1328 1323 1318 1314 1310 1306 1302 1298 1295 1291 1288 1285 1282 1279 1276 1275 1273 1271 1269 1266 1265 1264 1262 1261 1260 1259 1258 1257 1256 1256 1256
1379 1374 1369 1364 1359 1354 1349 1343 1339 1334 1329 1324 1319 1314 1310 1306 1301 1297 1293 1289 1286 1282 1279 1276 1273 1270 1268 1266 1264 1262 1260 1258 1257 1255 1254 1253 1252 1251 1250 1249 1249 1248 1248
1370 1365 1360 1355 1350 1344 1339 1334 1329 1324 1319 1315 1310 1305 1301 1297 1292 1288 1284 1280 1276 1272 1269 1267 1264 1261 1259 1257 1255 1253 1251 1250 1248 1247 1246 1245 1243 1242 1242 1241 1241 1241 1241
1361 1356 1351 1345 1340 1335 1330 1324 1319 1315 1310 1305 1301 1296 1292 1287 1283 1278 1274 1270 1267 1263 1260 1257 1254 1252 1249 1247 1245 1243 1241 1240 1239 1238 1238 1236 1235 1234 1233 1233 1232 1232 1232